Showing default

LEMUR 2 EMBRIONOVIS, 56970

Orbit data source: Space-Track

LEMUR 2 EMBRIONOVIS, 56970 is an American payload satellite in SSO that was launched on Mon, 12 Jun 2023 UTC via an FALCON 9 launch vehicle from the Air Force Western Test Range (AFWTR). Payload-class satellites include a variety of spacecraft equipped with specific instruments for various scientific and technological missions. These include communications satellites like Starlink; space stations such as the ISS; scientific satellites like the Hubble; Earth observation satellites from companies like Planet Labs, Umbra, and HawkEye 360; GPS; miniature CubeSats for education and research; and military/defense satellites.

Loading next visibility...
Identifier
56970, 2023-084AQ
Orbit
SSO
Country
Flag of USUS
Related business
Manufacturer
Spire/Glasgow
Mission
Operational Commercial Imaging
Bus & Motor
CUBESAT 6U, Unknown motor
Mass
10 kg wet, 10 kg dry
Launch date (UTC)
2023-06-12 (3 years ago)
Launch vehicle
FALCON 9
Launch site
Air Force Western Test Range (AFWTR)
Object type
Payload
Rocket body
Debris
Shape & HBR
Box + 2 Pan, 1.0 m
Radar Cross Section
0.077 m², Medium (>0.1 m² and < 1m²)

Expand to show TLE details & history
Last TLE update: 1 week ago

TLE from 1 week ago
0 LEMUR 2 EMBRIONOVIS
1 56970U 23084AQ  26155.18425658  .00014838  00000-0  40876-3 0  9994
2 56970  97.6283 298.8891 0008690   9.7326 350.4085 15.37210087165684
Epoch: 2026-06-04T04:25Z
TLE epoch observation values (Epoch: 2026-06-04T04:25:19.768Z)
Latitude
0.00002°
Longitude
-20.07544°
Altitude
451.615 km
Speed
7.645 km/s
True Right ascension
19h 55m 33s
True Declination
0° 00' 00"
Sunlit
Object was in full shadow at epoch
Visualization orbit readout
Latitude
Unknown
Longitude
Unknown
Altitude
Unknown
Speed
Unknown
Apparent Right ascension
Unknown
Apparent Declination
Unknown
Sunlit
N/A
Visualization observer readout
Local Sidereal Time
15:03:11
Azimuth
Unknown
Elevation
Unknown
Doppler factor
Unknown
Orbital elements
Apogee altitude
457.251 km
Perigee altitude
445.382 km
Semi-major axis
6,829.453 km
Eccentricity
0.00087
Inclination
97.6283°
RAAN
298.8891°
Arg. of periapsis
9.7326°
True anomaly
350.39189°
Mean anomaly
350.4085°
Eccentric anomaly
350.4002°
Mean motion
3.8456 °/min
Orbital period
93.61 mins
BSTAR
0.00040876
Loading maneuver chart data...
Computing Atmospheric mass density...
Loading historical data...
Loading historical data...
Loading historical data...
Loading historical data...
Loading historical data...
Loading historical data...
Loading historical data...

Documentation

Showing up to 5 results
|